Volver al catálogo

COSMOS 1140

ActivoMilitarLEO
NORAD 11573·PAYLOAD·🇷🇺 Russia

Lanzado Oct 11, 1979 desde Plesetsk Cosmodrome

Loading…

Próximos Pases (próximas 24 horas)

TLE

ActualizadoSource: Space-Track

Época: Sep 14, 2026, 10:27 UTC

1 11573U 79089A   26257.43559666  .00000051  00000-0  25691-4 0  9999
2 11573  74.0642 262.5162 0016149 338.6653  21.3825 14.37639156457687

Sigue COSMOS 1140 en tiempo real con AllMySat

Download on the App Store